Home   Weather   Owen Sound   Past weeks

Flag for Canada Past Weather in Owen Sound, Ontario, Canada — Yesterday and Last 2 Weeks

Now
59 °F

Overcast.


Feels Like: 56 °F
Forecast: 56 / 67 °F
Wind: 15 mph from Northeast

Location: Wiarton

Current Time: Sep 29, 2016 at 1:11:52 PM

Latest Report: Sep 29, 2016 at 12:00 PM


Visibility: 15 mi

Pressure: 30.35 "Hg

Humidity: 77%

Dew Point: 52 °F

Location of Owen SoundLocation

Past Weather in Owen Sound — Graph

°F

Owen Sound Temperature Yesterday

Maximum temperature yesterday: 72 °F (at 3:00 PM)
Minimum temperature yesterday: 50 °F (at 12:00 AM)
Average temperature yesterday: 60 °F

High & Low Weather Summary for the Past Weeks

 TemperatureHumidityPressure
High79 °F (Sep 19, 3:00 PM)100% (Sep 14, 9:00 PM)30.37 "Hg (Sep 14, 9:00 PM)
Low39 °F (Sep 25, 2:00 AM)38% (Sep 20, 1:00 PM)29.68 "Hg (Sep 27, 2:00 PM)
Average60 °F80%30.07 "Hg
* Reported Sep 14 12:00 PM — Sep 29 12:00 PM, Owen Sound, Weather by CustomWeather, © 2016

Note: Actual official high and low records may vary slightly from our data, if they occured in-between our weather recording intervals... More about our weather records

Advertising

Owen Sound Weather History for the Previous 24 Hours

Scroll right to see more
 ConditionsComfort  
Time TempWeatherWind HumidityBarometerVisibility
12:00 PM
Thu, Sep 29
59 °FOvercast.15 mph77%30.35 "Hg15 mi
11:00 AM59 °FOvercast.13 mph77%30.34 "Hg15 mi
10:00 AM57 °FPartly sunny.15 mph82%30.34 "Hg15 mi
9:00 AM57 °FPartly sunny.14 mph82%30.33 "Hg15 mi
8:00 AM55 °FPartly sunny.13 mph94%30.32 "Hg15 mi
7:00 AM57 °FPassing clouds.15 mph88%30.29 "Hg15 mi
6:00 AM57 °FPassing clouds.12 mph94%30.28 "Hg15 mi
5:00 AM57 °FPassing clouds.13 mph94%30.25 "Hg15 mi
4:00 AM57 °FPassing clouds.13 mph94%30.24 "Hg15 mi
3:00 AM59 °FPassing clouds.16 mph88%30.23 "Hg15 mi
2:00 AM59 °FPassing clouds.16 mph82%30.22 "Hg15 mi
1:00 AM61 °FPassing clouds.14 mph77%30.22 "Hg15 mi
12:00 AM61 °FPassing clouds.15 mph77%30.22 "Hg15 mi
11:00 PM
Wed, Sep 28
63 °FPassing clouds.12 mph68%30.20 "Hg15 mi
10:00 PM63 °FPassing clouds.10 mph64%30.18 "Hg15 mi
9:00 PM61 °FPassing clouds.10 mph68%30.17 "Hg15 mi
8:00 PM59 °FPassing clouds.9 mph72%30.15 "Hg15 mi
7:00 PM64 °FScattered clouds.9 mph56%30.12 "Hg15 mi
6:00 PM68 °FPassing clouds.9 mph60%30.10 "Hg15 mi
5:00 PM68 °FScattered clouds.12 mph60%30.08 "Hg15 mi
4:00 PM72 °FBroken clouds.14 mph57%30.06 "Hg15 mi
3:00 PM72 °FBroken clouds.12 mph61%30.04 "Hg15 mi
2:00 PM70 °FScattered clouds.15 mph64%30.03 "Hg15 mi
1:00 PM70 °FPartly sunny.13 mph60%30.02 "Hg15 mi
Weather by CustomWeather, © 2016

See weather overviewHow to use our weather pages